User: anonymous   Login
Location: Hoyos del Collado
(40.3594°N, 5.2003°W)
Time: 07:59:48
(UTC+00:00)
Language:

Cosmos 1503 Rocket - Orbit

View from above orbital plane
View from above orbital plane
View from above satellite
View from above satellite

Ground track
Ground track

The orbit data is extracted from the following two-line orbital elements,

1 14402U 83103B   24166.65750040  .00000352  00000-0  12799-3 0  9993
2 14402  74.0451 246.1536 0026481 180.9865 179.1241 14.36674378128701
Epoch (UTC): 14 June 2024 15:46:48
Eccentricity: 0.0026481
inclination: 74.0451°
perigee height: 750 km
apogee height: 788 km
right ascension of ascending node: 246.1536°
argument of perigee: 180.9865°
revolutions per day: 14.36674378
mean anomaly at epoch: 179.1241°
orbit number at epoch: 12870

The dashed part of the orbit path shows where the satellite is in the earth's shadow,  

DLR